TimeCST,TemperatureF,Dew PointF,Humidity,Sea Level PressureIn,VisibilityMPH,Wind Direction,Wind SpeedMPH,Gust SpeedMPH,PrecipitationIn,Events,Conditions,WindDirDegrees,DateUTC
12:53 AM,30.0,7.0,38,30.18,10.0,East,6.9,-,N/A,,Overcast,100,2013-01-25 06:53:00
1:20 AM,30.2,6.8,37,30.19,10.0,East,4.6,-,N/A,,Overcast,90,2013-01-25 07:20:00
1:53 AM,30.0,8.1,40,30.18,10.0,East,3.5,-,N/A,,Overcast,90,2013-01-25 07:53:00
2:53 AM,30.0,8.1,40,30.16,10.0,East,4.6,-,N/A,,Overcast,100,2013-01-25 08:53:00
3:53 AM,30.9,9.0,40,30.16,10.0,Calm,Calm,-,N/A,,Overcast,0,2013-01-25 09:53:00
4:53 AM,30.0,10.9,45,30.12,10.0,SE,3.5,-,N/A,,Overcast,130,2013-01-25 10:53:00
6:21 AM,28.4,14.0,55,30.14,10.0,Calm,Calm,-,N/A,,Overcast,0,2013-01-25 12:21:00
6:30 AM,28.4,14.0,55,30.15,10.0,Calm,Calm,-,N/A,,Overcast,0,2013-01-25 12:30:00
6:53 AM,28.9,12.0,49,30.14,10.0,Calm,Calm,-,N/A,,Overcast,0,2013-01-25 12:53:00
7:00 AM,28.4,12.2,51,30.16,10.0,Calm,Calm,-,N/A,,Overcast,0,2013-01-25 13:00:00
7:53 AM,30.0,12.9,49,30.16,10.0,Calm,Calm,-,N/A,,Overcast,0,2013-01-25 13:53:00
8:53 AM,30.0,12.9,49,30.18,10.0,WNW,3.5,-,N/A,,Mostly Cloudy,300,2013-01-25 14:53:00
9:53 AM,33.1,12.0,42,30.19,10.0,NW,10.4,-,N/A,,Clear,310,2013-01-25 15:53:00
10:53 AM,35.1,15.1,44,30.19,10.0,WNW,9.2,-,N/A,,Clear,290,2013-01-25 16:53:00
11:53 AM,37.0,14.0,39,30.18,10.0,WNW,9.2,-,N/A,,Clear,300,2013-01-25 17:53:00
12:53 PM,39.9,14.0,35,30.15,10.0,WNW,9.2,-,N/A,,Clear,300,2013-01-25 18:53:00
1:53 PM,41.0,14.0,33,30.15,10.0,West,9.2,-,N/A,,Clear,280,2013-01-25 19:53:00
2:53 PM,43.0,16.0,34,30.14,10.0,West,12.7,-,N/A,,Clear,260,2013-01-25 20:53:00
3:53 PM,44.1,17.1,34,30.15,10.0,West,9.2,-,N/A,,Clear,280,2013-01-25 21:53:00
4:53 PM,42.1,18.0,38,30.16,10.0,WNW,4.6,-,N/A,,Clear,290,2013-01-25 22:53:00
5:53 PM,39.0,18.0,43,30.17,10.0,West,4.6,-,N/A,,Clear,260,2013-01-25 23:53:00
6:53 PM,37.9,18.0,45,30.19,10.0,Calm,Calm,-,N/A,,Clear,0,2013-01-26 00:53:00
7:53 PM,37.0,18.0,46,30.19,10.0,Calm,Calm,-,N/A,,Clear,0,2013-01-26 01:53:00
8:53 PM,32.0,18.0,56,30.21,10.0,NNW,3.5,-,N/A,,Clear,330,2013-01-26 02:53:00
9:53 PM,32.0,19.0,59,30.23,10.0,NW,3.5,-,N/A,,Clear,320,2013-01-26 03:53:00
10:53 PM,28.0,18.0,66,30.25,10.0,Calm,Calm,-,N/A,,Clear,0,2013-01-26 04:53:00
11:53 PM,27.0,18.0,69,30.25,10.0,Calm,Calm,-,N/A,,Clear,0,2013-01-26 05:53:00